Zurück zum Katalog

FENGYUN 1C DEB

AktivSSO
NORAD 30193·DEBRIS·🇨🇳 China

Gestartet May 10, 1999 von Taiyuan Satellite Launch Center

Loading…

Nächste Überflüge (nächste 24 Stunden)

TLE

AktuellSource: Space-Track

Epoche: Sep 14, 2026, 06:14 UTC

1 30193U 99025VA  26257.25985595  .00002080  00000-0  50469-3 0  9998
2 30193  98.7499 181.2034 0105946  21.8219 138.2702 14.50726538 31605

Verfolge FENGYUN 1C DEB in Echtzeit mit AllMySat

Download on the App Store